GORIZONT 13 [-]

Last updated on Tue Jun 27 2023 00:03:00 GMT+0000 (Coordinated Universal Time)

1 17083U 86090A 23177.04427916 -.00000068 00000+0 00000+0 0 9998 2 17083 13.7329 336.0226 0011836 350.0138 12.7709 0.96725872108154

Satellite not in orbit

GORIZONT 13 [-]